Date,TemperatureHighF,TemperatureAvgF,TemperatureLowF,DewpointHighF,DewpointAvgF,DewpointLowF,HumidityHigh,HumidityAvg,HumidityLow,PressureMaxIn,PressureMinIn,WindSpeedMaxMPH,WindSpeedAvgMPH,GustSpeedMaxMPH,PrecipitationSumIn
2013-1-1,29.8,16.7,8.8,27.5,10.6,1.9,95,77,66,30.01,29.73,16,3,20,0.00
2013-1-2,13.8,6.5,-6.9,11.3,1.4,-10.8,91,79,64,30.32,29.94,16,1,17,0.00
2013-1-3,8.8,-1.4,-10.7,1.8,-6.3,-14.4,98,80,63,30.34,30.03,4,0,4,0.00
2013-1-4,30.7,23.6,5.0,26.8,19.7,1.8,94,85,71,30.03,29.83,22,2,22,0.00
2013-1-5,31.3,22.9,12.2,26.4,16.6,9.5,90,77,65,30.30,29.84,22,3,22,0.00
2013-1-6,30.7,23.4,12.2,29.7,21.4,9.5,96,92,87,30.27,29.97,8,0,8,0.00
2013-1-7,27.7,19.0,13.8,26.4,15.2,10.9,95,85,72,30.43,30.02,12,0,12,0.00
2013-1-8,37.4,29.7,21.6,24.6,22.0,15.3,91,74,56,30.43,30.25,13,1,13,0.06
2013-1-9,41.4,29.5,15.3,31.8,23.4,13.3,100,79,60,30.45,29.97,24,2,24,0.07
2013-1-10,37.9,33.4,27.5,31.8,26.2,23.2,94,75,66,30.61,30.05,30,4,30,0.07
2013-1-11,34.5,29.6,21.6,32.4,24.8,19.9,94,83,64,30.61,30.17,19,1,19,0.00
2013-1-12,43.9,37.8,34.0,40.8,36.0,32.4,98,93,88,30.21,30.11,14,2,14,0.35
2013-1-13,50.5,41.2,33.3,48.6,39.1,32.7,99,92,76,30.19,29.93,14,1,15,0.05
2013-1-14,53.2,42.7,32.2,49.3,35.7,24.4,96,77,53,30.32,29.83,18,2,20,0.00
2013-1-15,32.2,28.5,23.7,26.1,21.2,18.0,86,74,61,30.40,30.30,9,0,9,0.00
2013-1-16,29.5,27.3,24.4,27.5,24.3,20.7,92,88,80,30.31,29.83,10,0,10,0.00
2013-1-17,32.2,20.1,5.4,27.9,12.0,-3.3,92,71,44,30.23,29.83,14,1,14,0.00
2013-1-18,17.4,8.1,-1.1,6.8,-3.8,-12.1,77,58,43,30.44,30.21,15,1,15,0.00
2013-1-19,40.3,29.7,15.3,26.6,20.1,7.5,92,69,53,30.33,29.80,16,2,16,0.05
2013-1-20,44.2,32.8,13.5,33.4,21.5,7.3,95,64,49,29.98,29.46,34,6,34,0.10
2013-1-21,17.1,11.1,2.8,9.5,4.2,-0.6,95,74,49,30.12,29.89,9,0,9,0.00
2013-1-22,15.1,7.5,-1.1,7.3,0.5,-12.5,89,73,51,30.15,29.88,18,2,20,0.00
2013-1-23,-0.2,-5.6,-9.8,-7.2,-14.1,-18.9,85,66,46,30.27,30.14,11,1,12,0.00
2013-1-24,8.2,-1.4,-10.1,-6.7,-12.3,-17.3,77,60,41,30.44,30.22,20,2,20,0.00
2013-1-25,10.8,4.0,-2.6,1.6,-4.5,-9.4,78,67,55,30.46,30.20,17,1,17,0.00
2013-1-26,13.3,7.0,-0.6,6.4,0.1,-6.7,88,74,45,30.37,30.17,17,1,17,0.00
2013-1-27,16.9,9.6,5.2,5.5,-1.9,-7.8,82,61,35,30.59,30.36,19,1,19,0.00
2013-1-28,19.0,11.2,1.8,16.7,6.8,-3.3,91,82,67,30.56,30.12,12,0,12,0.00
2013-1-29,31.6,24.2,17.6,30.0,21.6,15.6,100,90,83,30.28,30.09,14,1,18,0.00
2013-1-30,54.9,42.8,31.6,52.7,41.1,29.8,96,94,88,30.10,29.34,23,4,24,0.45
2013-1-31,51.1,36.5,21.4,49.5,30.0,7.0,97,78,49,29.55,28.85,32,6,36,0.30
2013-2-1,21.2,14.7,9.3,11.1,6.8,1.8,89,71,55,30.18,29.55,27,3,27,0.00
2013-2-2,19.6,13.3,5.7,14.5,6.8,0.9,92,75,60,30.25,30.11,15,1,16,0.00
2013-2-3,26.4,16.1,9.0,14.7,10.5,6.6,91,80,50,30.12,29.81,6,0,8,0.00
2013-2-4,20.7,15.2,6.6,14.7,6.5,-7.2,91,70,39,30.00,29.79,24,2,24,0.00
2013-2-5,20.7,10.5,0.0,5.9,-2.3,-8.7,77,57,37,30.12,29.99,7,0,7,0.00
2013-2-6,25.5,18.2,9.0,22.1,8.4,-7.4,91,67,42,30.43,29.96,15,1,15,0.00
2013-2-7,16.2,8.8,-0.2,1.6,-4.1,-8.5,77,56,37,30.65,30.42,13,0,13,0.00
2013-2-8,22.1,17.6,11.8,19.8,13.6,1.0,95,84,52,30.55,30.00,9,0,9,0.00
2013-2-9,16.5,11.5,6.6,13.8,4.8,-0.8,100,75,57,30.42,30.00,17,2,17,0.00
2013-2-10,28.4,13.8,1.0,7.9,2.2,-3.3,84,62,31,30.56,30.38,5,0,5,0.00
2013-2-11,35.8,27.0,11.5,34.9,20.1,5.5,97,77,46,30.38,29.67,18,2,23,0.00
2013-2-12,34.2,32.7,29.1,32.0,28.8,25.5,95,85,77,29.89,29.65,19,3,20,0.00
2013-2-13,33.8,30.4,28.6,25.7,23.7,20.8,88,76,59,29.90,29.81,11,1,11,0.01
2013-2-14,32.7,28.9,25.5,25.0,21.7,18.9,89,75,59,30.02,29.80,8,0,8,0.00
2013-2-15,40.8,34.4,25.7,30.4,25.0,20.1,90,69,49,30.01,29.91,21,2,21,0.02
2013-2-16,30.9,24.2,16.7,22.6,13.1,3.2,83,62,49,30.05,29.95,10,0,10,0.02
2013-2-17,16.7,11.0,7.9,5.9,3.1,1.0,81,70,59,29.96,29.71,21,3,25,0.00
2013-2-18,22.6,12.7,5.0,1.0,-2.1,-8.0,76,54,26,30.24,29.91,19,2,20,0.00
2013-2-19,37.8,24.9,9.3,31.3,12.9,-2.4,96,62,29,30.24,29.67,17,1,19,0.00
2013-2-20,31.6,24.8,20.1,30.7,20.4,14.4,97,84,64,29.81,29.65,24,3,24,0.00
2013-2-21,20.1,14.9,8.6,16.7,9.1,2.3,89,77,65,30.45,29.81,21,1,21,0.00
2013-2-22,31.3,25.1,16.2,22.6,19.7,14.2,98,80,66,30.53,30.32,6,0,6,0.00
2013-2-23,31.8,30.6,29.8,29.3,25.8,20.5,94,83,65,30.32,29.99,13,1,13,0.00
2013-2-24,36.1,31.8,29.1,33.1,29.6,26.8,94,91,83,30.00,29.83,8,0,8,0.01
2013-2-25,33.8,31.2,29.7,31.3,29.1,27.5,96,92,88,30.31,30.00,9,0,9,0.00
2013-2-26,39.4,33.6,29.3,31.6,29.3,27.3,97,85,69,30.40,30.20,15,1,16,0.04
2013-2-27,35.8,32.8,30.4,32.9,30.0,26.4,96,90,78,30.20,29.71,14,1,19,0.18
2013-2-28,41.2,34.3,30.4,36.1,32.4,29.7,97,93,75,29.71,29.62,6,0,6,0.22
2013-3-1,33.4,30.5,28.6,31.5,27.7,26.2,98,89,77,29.81,29.65,11,1,11,0.00
2013-3-2,31.6,27.4,21.7,27.1,24.6,19.8,96,89,74,29.83,29.78,8,1,8,0.05
2013-3-3,29.1,24.6,20.5,26.1,21.6,18.9,94,88,81,29.80,29.73,8,1,9,0.04
2013-3-4,26.4,23.2,21.0,21.0,19.3,18.3,92,85,73,29.95,29.76,12,1,12,0.00
2013-3-5,36.7,28.8,22.8,30.0,24.6,20.1,92,85,72,30.18,29.95,9,0,9,0.03
2013-3-6,40.1,34.3,28.9,29.7,26.5,21.7,93,73,56,30.27,30.16,20,1,20,0.00
2013-3-7,34.7,31.3,29.3,24.6,22.7,20.5,76,70,64,30.26,30.21,10,1,12,0.00
2013-3-8,41.0,31.9,26.8,26.1,23.9,22.3,86,73,52,30.39,30.20,14,1,14,0.00
2013-3-9,50.4,34.1,22.5,27.7,22.7,17.6,91,67,29,30.43,30.36,10,0,10,0.00
2013-3-10,52.0,40.4,25.5,27.9,24.4,21.4,87,56,35,30.41,30.22,12,2,17,0.00
2013-3-11,46.9,43.5,40.3,36.1,30.5,27.5,78,60,51,30.25,30.02,22,3,23,0.00
2013-3-12,47.8,43.3,35.2,46.2,41.1,34.0,96,92,78,30.04,29.75,20,2,20,1.06
2013-3-13,38.8,34.4,28.0,34.0,30.3,24.1,96,86,57,29.87,29.80,11,1,12,0.02
2013-3-14,30.2,22.7,14.7,27.7,15.9,5.2,94,75,59,29.96,29.78,17,2,19,0.00
2013-3-15,34.2,21.9,13.3,26.2,13.1,4.6,92,70,40,29.97,29.66,15,1,19,0.00
2013-3-16,26.1,21.3,15.1,21.2,13.7,9.0,92,73,54,29.99,29.79,14,2,14,0.03
2013-3-17,23.0,16.1,9.9,13.3,6.6,0.1,90,68,41,30.43,29.99,21,2,21,0.00
2013-3-18,33.6,20.9,5.5,14.2,3.3,-2.0,86,50,23,30.53,30.23,18,1,19,0.00
2013-3-19,29.7,27.2,24.6,27.7,24.8,14.2,94,91,53,30.24,29.79,15,1,19,0.00
2013-3-20,30.6,26.3,22.5,27.0,21.7,17.2,95,83,67,29.79,29.71,15,2,17,0.04
2013-3-21,33.8,25.9,19.2,20.5,16.4,11.7,87,69,43,29.80,29.70,12,1,12,0.13
2013-3-22,33.4,24.7,14.5,21.9,18.5,12.4,93,78,52,29.81,29.71,12,1,13,0.04
2013-3-23,32.4,28.4,23.5,26.6,23.2,19.6,94,81,64,29.87,29.71,24,4,24,0.01
2013-3-24,36.9,30.9,24.4,26.1,23.8,20.1,87,75,61,29.93,29.85,13,2,14,0.05
2013-3-25,42.1,31.7,19.9,27.1,23.5,17.8,94,73,49,29.89,29.65,9,0,9,0.01
2013-3-26,41.7,35.4,30.7,27.3,24.2,20.3,83,64,44,29.87,29.68,14,1,14,0.00
2013-3-27,43.0,36.7,31.3,32.2,27.3,23.0,94,69,54,29.99,29.84,13,1,15,0.01
2013-3-28,45.5,37.5,32.0,34.9,32.2,30.7,96,82,61,30.12,29.98,8,0,8,0.01
2013-3-29,45.7,39.0,35.8,37.8,33.8,30.6,95,82,65,30.14,30.07,13,1,13,0.08
2013-3-30,47.7,38.3,30.4,30.9,22.6,12.4,89,58,26,30.17,30.11,16,1,16,0.00
2013-3-31,53.4,40.1,25.2,36.1,23.8,16.9,88,55,31,30.16,29.80,24,2,25,0.01
2013-4-1,43.9,36.1,27.3,40.6,29.9,13.1,95,80,41,29.83,29.56,24,3,26,0.17
2013-4-2,29.5,25.4,20.1,19.2,15.2,9.5,91,66,46,29.95,29.82,26,5,27,0.01
2013-4-3,36.9,28.9,23.2,22.8,12.9,6.4,77,52,31,30.25,29.93,30,8,32,0.00
2013-4-4,52.2,37.7,25.9,22.1,15.2,7.0,58,41,24,30.33,29.96,14,2,19,0.00
2013-4-5,44.2,38.5,28.8,31.3,22.0,15.6,78,52,37,30.01,29.83,17,2,18,0.00
2013-4-6,37.9,28.4,20.7,17.4,8.6,3.2,82,45,25,30.38,30.01,18,3,24,0.00
2013-4-7,54.0,42.1,27.9,35.8,20.7,6.6,59,43,33,30.35,29.89,26,3,28,0.01
2013-4-8,54.9,44.4,37.6,37.9,32.4,29.8,78,64,40,30.20,29.93,14,2,14,0.00
2013-4-9,48.4,43.2,39.4,44.4,39.2,31.1,96,86,65,30.09,29.88,15,1,17,0.21
2013-4-10,47.3,41.9,39.0,43.9,40.2,37.8,98,94,82,30.07,29.98,5,0,5,0.15
2013-4-11,39.7,35.4,30.0,38.7,24.7,15.3,97,68,40,30.27,29.98,12,1,12,0.01
2013-4-12,32.4,30.8,28.2,30.6,26.5,18.3,94,85,58,30.27,29.92,18,1,18,0.00
2013-4-13,46.6,37.5,31.8,38.1,33.8,30.0,100,87,64,29.97,29.85,9,1,9,0.69
2013-4-14,43.2,37.3,30.6,36.7,33.0,28.2,96,85,67,30.30,29.94,16,1,18,0.16
2013-4-15,60.1,42.8,26.6,35.8,31.1,25.3,96,68,38,30.43,30.29,13,1,13,0.00
2013-4-16,57.0,50.1,43.9,52.7,42.1,33.6,95,75,56,30.32,29.99,21,3,23,0.17
2013-4-17,53.8,45.3,35.2,42.8,32.1,27.7,81,61,40,30.42,30.12,17,2,17,0.00
2013-4-18,60.6,45.5,31.1,38.1,32.1,26.4,89,62,42,30.45,30.00,29,3,30,0.03
2013-4-19,73.8,61.5,46.6,59.9,51.7,36.0,95,71,48,30.01,29.49,36,4,36,0.45
2013-4-20,49.1,41.2,32.2,45.3,30.8,19.4,96,69,42,30.32,29.66,27,4,27,0.13
2013-4-21,45.0,34.4,27.1,22.8,17.8,13.5,74,52,30,30.77,30.32,22,2,22,0.00
2013-4-22,56.7,40.1,24.8,25.2,19.6,14.5,82,48,23,30.82,30.60,22,2,22,0.00
2013-4-23,49.3,39.6,30.0,36.3,30.8,23.7,86,71,52,30.64,30.23,19,2,20,0.00
2013-4-24,76.6,56.4,38.7,51.1,40.7,30.9,92,62,19,30.24,29.67,20,2,20,0.01
2013-4-25,63.5,46.6,37.0,52.5,31.5,22.6,82,57,33,30.35,29.67,22,4,26,0.02
2013-4-26,54.1,42.6,31.3,37.8,30.6,25.3,85,64,39,30.51,30.35,14,1,14,0.00
2013-4-27,62.4,46.3,30.7,37.2,29.3,18.1,96,59,21,30.52,30.35,11,1,12,0.00
2013-4-28,72.9,54.4,33.6,36.7,31.2,27.0,79,46,21,30.38,30.17,13,1,13,0.00
2013-4-29,67.5,57.9,50.2,45.7,39.1,34.5,62,50,34,30.24,30.15,19,1,19,0.00
2013-4-30,71.1,60.2,52.2,48.9,44.1,37.2,70,56,43,30.33,30.23,12,0,12,0.00
2013-5-1,80.1,63.8,45.9,44.4,36.5,27.7,72,39,21,30.48,30.33,10,1,12,0.00
2013-5-2,81.7,64.1,48.0,46.4,39.4,27.9,68,42,25,30.47,30.33,13,1,13,0.00
2013-5-3,75.0,58.1,43.5,40.8,35.9,25.3,68,45,26,30.55,30.35,14,1,15,0.00
2013-5-4,79.7,61.9,44.1,46.2,40.0,29.8,88,50,17,30.40,30.20,12,1,15,0.00
2013-5-5,80.1,63.2,45.7,39.2,34.7,28.8,66,37,17,30.29,30.14,12,1,13,0.00
2013-5-6,80.4,64.2,44.4,41.7,32.2,18.3,73,35,11,30.24,30.06,12,1,13,0.00
2013-5-7,82.2,66.3,46.6,46.0,38.6,25.0,74,40,15,30.17,30.05,10,1,10,0.00
2013-5-8,78.3,62.8,49.1,58.5,51.0,41.0,93,68,36,30.19,30.06,17,1,19,0.06
2013-5-9,71.8,62.2,56.3,59.5,56.3,52.3,96,82,53,30.06,29.88,15,1,15,0.08
2013-5-10,73.9,60.6,53.1,61.3,56.1,51.8,100,87,53,30.01,29.84,9,0,9,0.05
2013-5-11,67.5,60.4,51.3,60.1,56.4,47.5,98,87,73,29.85,29.64,16,2,16,0.13
2013-5-12,59.4,50.5,40.5,47.8,40.4,28.0,93,70,42,29.81,29.64,17,1,17,0.02
2013-5-13,47.1,42.1,37.9,35.8,29.5,25.0,91,61,50,30.12,29.79,21,3,21,0.02
2013-5-14,54.5,43.3,32.2,36.5,30.0,23.5,97,64,32,30.16,30.05,13,1,14,0.01
2013-5-15,64.8,46.6,30.7,48.2,36.3,27.9,91,71,32,30.11,29.67,20,1,24,0.03
2013-5-16,70.0,55.2,48.0,47.7,44.0,35.2,95,71,29,29.87,29.65,25,3,25,0.00
2013-5-17,63.0,53.4,44.6,41.9,40.2,38.3,88,63,43,30.22,29.92,5,2,10,0.00
2013-5-18,72.0,62.7,39.7,44.8,37.4,30.2,93,42,24,30.36,30.25,11,1,13,0.00
2013-5-19,68.5,55.9,45.9,55.6,48.0,39.6,94,76,51,30.33,30.16,13,1,13,0.16
2013-5-20,66.6,59.0,53.4,62.4,57.2,52.0,98,94,84,30.16,30.02,15,0,15,0.12
2013-5-21,73.2,61.9,54.1,64.6,59.1,53.1,99,91,73,30.04,29.85,22,1,27,0.04
2013-5-22,80.1,62.5,51.4,68.5,59.7,50.5,98,91,65,29.96,29.79,16,1,19,0.04
2013-5-23,73.9,65.4,60.4,65.5,61.5,59.5,98,88,65,29.85,29.73,20,2,20,0.04
2013-5-24,60.4,52.2,44.6,59.5,51.6,44.1,98,98,97,29.94,29.70,7,1,8,0.01
2013-5-25,41.4,38.0,35.2,40.6,37.1,34.0,97,96,95,30.02,29.93,15,2,18,0.02
2013-5-26,47.3,41.5,36.9,43.5,39.3,36.1,98,92,79,30.15,29.89,16,1,16,0.02
2013-5-27,64.6,48.9,33.1,42.3,37.2,32.2,99,69,36,30.24,30.12,18,1,19,0.01
2013-5-28,73.6,56.6,38.5,48.0,41.3,36.0,96,62,34,30.29,30.15,13,1,14,0.01
2013-5-29,61.9,57.4,52.2,60.1,53.9,44.4,98,89,58,30.15,29.98,12,1,13,0.02
2013-5-30,84.6,70.6,59.4,66.2,62.5,58.6,99,78,48,30.12,30.02,16,1,16,0.00
2013-5-31,90.0,82.5,64.8,67.3,61.7,56.3,89,50,42,30.09,29.90,14,2,15,0.01
2013-6-1,88.3,75.5,62.6,71.8,64.1,57.4,95,70,42,29.95,29.81,22,2,22,0.21
2013-6-2,84.2,69.9,62.8,71.2,65.9,59.2,99,88,55,29.88,29.67,15,1,15,0.12
2013-6-3,68.0,62.3,53.1,59.7,53.7,42.1,92,75,54,29.89,29.78,14,1,14,0.00
2013-6-4,61.9,52.9,47.5,47.3,43.1,39.9,80,70,52,30.16,29.88,16,2,18,0.00
2013-6-5,67.1,55.5,43.2,45.1,41.2,33.1,94,62,30,30.27,30.16,13,1,13,0.00
2013-6-6,66.9,55.2,49.8,53.2,48.3,41.4,97,78,53,30.24,30.12,6,0,7,0.27
2013-6-7,53.8,51.6,49.8,53.2,50.3,48.7,98,96,92,30.13,29.94,13,1,13,0.71
2013-6-8,61.9,55.4,50.7,58.1,53.9,50.2,99,95,84,30.08,29.82,10,1,10,0.16
2013-6-9,72.9,61.8,54.3,59.4,55.3,51.3,99,81,53,30.24,30.06,13,1,13,0.01
2013-6-10,74.1,60.6,49.8,60.1,52.7,48.0,97,78,41,30.26,30.03,15,0,15,0.16
2013-6-11,58.3,55.5,54.0,56.8,54.4,52.5,98,96,93,30.03,29.64,11,0,11,1.44
2013-6-12,66.0,56.7,51.6,57.6,53.2,51.1,100,89,64,29.90,29.65,14,1,14,0.07
2013-6-13,67.6,57.7,47.7,58.5,51.7,46.9,99,82,54,29.88,29.74,8,0,8,0.00
2013-6-14,75.2,62.7,50.9,58.1,52.7,47.5,98,73,44,29.88,29.74,13,1,13,0.00
2013-6-15,72.3,60.8,47.7,49.6,45.0,41.0,85,58,37,29.99,29.88,15,1,15,0.00
2013-6-16,70.9,60.2,52.9,60.4,53.5,45.5,97,80,58,29.95,29.73,11,0,11,0.17
2013-6-17,73.0,61.9,54.9,62.2,57.4,53.1,97,86,59,29.97,29.80,13,1,13,0.14
2013-6-18,72.5,57.3,48.4,54.5,49.8,44.2,98,79,43,30.04,29.95,8,0,8,0.00
2013-6-19,70.7,56.5,44.1,48.4,44.5,37.9,95,68,41,30.23,30.02,10,1,11,0.00
2013-6-20,77.0,59.5,42.3,52.7,46.8,40.6,97,67,32,30.32,30.22,9,0,10,0.00
2013-6-21,81.1,65.3,50.4,58.6,52.7,48.0,95,68,38,30.29,30.23,11,1,12,0.00
2013-6-22,79.0,65.4,58.3,68.2,60.7,54.9,98,86,64,30.25,30.14,7,0,7,0.15
2013-6-23,84.0,71.1,63.7,73.2,67.9,62.8,99,91,67,30.14,29.97,9,0,9,1.21
2013-6-24,86.4,72.3,64.8,74.3,68.2,63.9,99,88,60,30.01,29.88,18,1,19,0.76
2013-6-25,87.1,70.4,62.8,73.4,66.6,62.2,100,89,56,29.94,29.75,10,0,10,1.02
2013-6-26,78.3,67.3,63.9,70.0,65.8,63.5,100,95,72,29.84,29.76,9,0,9,0.55
2013-6-27,87.3,73.0,62.6,71.4,66.5,60.8,100,82,43,29.83,29.73,8,0,8,0.00
2013-6-28,78.3,66.2,61.2,69.6,63.9,60.3,98,92,73,29.73,29.43,19,1,19,0.94
2013-6-29,79.7,67.5,60.8,68.2,63.6,60.3,100,89,58,29.70,29.51,15,1,17,0.35
2013-6-30,84.4,70.9,60.6,69.3,64.5,60.3,100,82,53,29.96,29.70,7,0,7,0.30
2013-7-1,73.0,67.1,59.9,68.5,65.4,59.2,99,95,85,30.12,29.94,4,0,4,0.25
2013-7-2,81.9,67.9,59.5,74.7,65.8,59.0,99,93,76,30.16,30.09,12,0,12,0.85
2013-7-3,82.8,70.7,65.1,75.0,69.1,64.6,99,95,74,30.19,30.13,8,0,8,0.91
2013-7-4,87.3,73.3,66.9,76.8,70.4,66.6,100,92,60,30.21,30.10,14,0,15,1.78
2013-7-5,87.3,74.2,66.0,75.6,70.5,65.5,100,89,60,30.17,30.05,13,0,13,0.39
2013-7-6,82.2,74.1,68.4,71.2,68.1,63.1,99,83,55,30.09,30.00,16,2,17,0.00
2013-7-7,85.5,72.3,63.9,72.1,66.1,59.4,94,82,58,30.05,29.94,6,0,6,0.00
2013-7-8,81.3,70.9,67.3,75.6,69.1,66.4,99,94,72,30.07,29.95,6,0,7,0.75
2013-7-9,84.7,73.2,65.7,73.4,68.8,65.3,100,87,61,30.10,30.01,10,0,11,0.01
2013-7-10,77.5,72.4,68.7,72.1,69.1,66.6,95,89,79,30.03,29.75,15,1,15,0.03
2013-7-11,79.5,70.5,61.3,70.0,64.5,58.6,99,83,56,30.05,29.73,15,1,15,0.35
2013-7-12,82.6,67.9,55.4,64.9,58.9,54.3,98,76,44,30.24,30.04,9,0,9,0.00
2013-7-13,82.6,69.6,57.9,67.8,62.6,56.8,98,80,59,30.33,30.24,12,0,12,0.00
2013-7-14,87.6,75.1,66.9,72.5,68.5,65.3,96,81,54,30.34,30.23,7,0,7,0.00
2013-7-15,88.7,76.8,66.2,72.1,67.6,62.8,99,76,45,30.25,30.15,14,1,15,0.00
2013-7-16,89.2,77.6,67.1,72.0,67.8,64.4,92,73,50,30.24,30.17,10,0,10,0.00
2013-7-17,91.4,76.7,65.1,74.1,69.2,64.0,98,80,53,30.21,29.97,15,1,15,0.29
2013-7-18,87.3,74.8,67.6,75.9,70.7,67.1,99,88,59,30.05,29.93,9,0,10,0.20
2013-7-19,90.9,77.9,67.6,75.2,70.8,66.0,100,81,53,29.95,29.65,21,3,21,0.25
2013-7-20,79.7,72.4,63.5,72.0,65.1,56.3,97,79,47,29.85,29.65,17,2,22,0.36
2013-7-21,79.3,66.1,57.7,61.3,58.2,54.7,97,78,48,30.06,29.84,8,0,8,0.00
2013-7-22,83.3,67.1,53.2,68.5,60.1,51.8,97,80,55,30.08,29.88,7,0,8,0.00
2013-7-23,81.9,68.8,64.8,71.1,66.1,63.7,99,92,66,29.88,29.57,6,0,7,0.64
2013-7-24,65.7,60.8,53.6,64.9,57.0,47.5,99,88,71,30.09,29.58,13,1,13,0.15
2013-7-25,75.6,58.7,45.0,57.6,50.5,43.9,98,77,45,30.20,30.09,7,0,7,0.00
2013-7-26,72.0,61.8,52.5,62.2,56.9,51.4,98,85,65,30.17,30.05,12,0,12,0.00
2013-7-27,83.8,66.6,51.3,65.5,58.5,50.4,99,78,47,30.10,29.98,8,0,8,0.00
2013-7-28,78.1,68.3,59.2,67.6,63.3,58.1,98,85,66,30.02,29.93,13,1,14,0.37
2013-7-29,77.9,69.0,62.2,66.7,62.3,55.0,99,82,46,30.10,29.96,13,1,14,0.33
2013-7-30,75.9,65.2,56.3,61.0,57.6,54.1,97,78,54,30.16,30.09,12,1,14,0.01
2013-7-31,80.8,67.2,54.1,61.7,57.3,52.0,98,74,42,30.18,30.04,9,0,9,0.00
2013-8-1,79.2,65.6,57.0,64.4,60.8,55.9,98,86,57,30.05,29.84,12,1,15,0.45
2013-8-2,76.8,67.1,58.6,64.9,59.5,53.6,99,79,47,29.87,29.80,16,1,16,0.03
2013-8-3,71.8,63.2,57.4,61.2,57.5,54.9,98,83,58,29.87,29.78,16,1,17,0.18
2013-8-4,69.8,61.0,55.9,59.7,56.7,54.0,97,87,60,29.97,29.85,13,1,16,0.19
2013-8-5,68.5,58.5,48.4,54.1,48.2,37.2,96,72,37,30.10,29.96,14,1,16,0.03
2013-8-6,76.8,61.5,47.7,59.5,52.1,46.2,97,74,42,30.18,30.09,7,0,8,0.00
2013-8-7,79.2,66.1,54.1,61.9,57.1,53.1,97,75,51,30.18,30.04,15,1,15,0.00
2013-8-8,82.6,71.7,65.5,69.8,64.8,58.5,92,80,59,30.04,29.96,11,1,11,0.02
2013-8-9,77.4,69.4,65.5,72.9,67.9,63.7,99,95,81,29.98,29.78,9,0,9,0.85
2013-8-10,72.0,64.9,55.8,66.7,55.5,48.6,98,73,48,30.06,29.81,17,2,17,0.24
2013-8-11,74.7,63.2,53.2,57.9,53.8,49.6,94,74,48,30.12,30.01,10,0,12,0.00
2013-8-12,76.3,65.1,54.1,63.0,56.2,51.8,94,75,48,30.06,29.93,13,1,13,0.00
2013-8-13,75.0,63.7,57.7,64.6,60.6,56.8,98,90,68,29.94,29.70,11,0,11,0.06
2013-8-14,63.5,58.6,53.1,60.4,54.7,51.1,97,87,72,30.00,29.70,13,1,14,0.19
2013-8-15,72.7,59.7,47.5,56.3,51.2,46.0,97,75,49,30.14,30.00,14,1,15,0.00
2013-8-16,77.2,61.7,48.9,60.4,54.0,47.5,98,78,51,30.25,30.13,11,1,12,0.21
2013-8-17,76.8,63.6,54.9,62.6,56.7,52.5,99,81,47,30.35,30.25,9,0,9,0.01
2013-8-18,77.7,63.6,51.8,62.1,56.2,50.0,99,80,43,30.33,30.12,7,0,7,0.00
2013-8-19,78.8,65.9,53.1,63.7,58.8,52.0,99,80,54,30.13,29.99,15,1,17,0.00
2013-8-20,82.6,68.8,56.8,66.2,60.7,55.9,98,78,52,30.12,30.04,12,1,12,0.00
2013-8-21,85.1,71.3,58.5,68.4,63.1,57.4,98,78,49,30.17,30.02,11,1,11,0.00
2013-8-22,84.2,71.2,64.2,67.5,63.9,60.3,98,80,51,30.04,29.82,18,0,21,0.23
2013-8-23,71.8,62.4,51.3,63.9,55.8,49.3,99,81,48,30.24,29.88,10,0,11,0.01
2013-8-24,76.8,59.2,44.2,58.6,50.5,43.3,99,77,37,30.40,30.24,11,1,11,0.01
2013-8-25,79.2,62.1,46.8,57.9,53.0,45.7,98,75,40,30.43,30.17,7,0,7,0.00
2013-8-26,71.8,65.6,60.4,68.0,63.0,53.4,97,91,69,30.18,29.91,7,0,7,0.08
2013-8-27,81.9,71.5,65.8,70.9,67.5,65.3,99,88,63,29.95,29.88,9,0,11,0.00
2013-8-28,86.4,71.6,63.9,71.4,66.9,63.0,99,86,56,29.99,29.88,7,0,7,0.00
2013-8-29,78.6,68.6,62.8,67.5,63.6,61.3,97,85,61,30.09,29.98,10,0,10,0.00
2013-8-30,82.4,70.5,62.1,69.8,65.2,61.3,99,85,61,30.03,29.79,12,1,13,0.02
2013-8-31,73.8,69.3,67.5,69.8,67.1,64.9,99,93,79,29.82,29.78,7,0,7,0.24
2013-9-1,85.5,72.6,65.8,70.7,67.5,64.9,100,85,56,29.90,29.81,4,0,4,0.00
2013-9-2,81.7,70.5,62.2,72.0,67.4,61.2,96,90,67,29.87,29.69,19,0,19,0.24
2013-9-3,75.6,64.2,59.4,63.7,60.4,57.4,100,89,59,29.84,29.72,18,0,18,0.03
2013-9-4,70.9,62.1,57.2,59.7,57.1,51.6,98,85,58,29.96,29.84,16,1,16,0.29
2013-9-5,62.2,54.6,44.4,57.0,46.6,37.8,100,77,46,30.22,29.92,19,1,20,0.02
2013-9-6,68.5,51.9,38.5,49.3,42.1,37.4,98,73,41,30.31,30.11,11,1,11,0.00
2013-9-7,70.0,58.8,50.4,55.9,50.4,45.3,94,75,45,30.12,29.87,9,0,9,0.00
2013-9-8,61.3,54.0,45.3,55.0,46.8,39.6,96,78,51,30.15,29.80,20,1,20,0.08
2013-9-9,70.5,53.6,39.7,49.3,43.2,38.5,97,71,35,30.26,30.11,8,0,8,0.00
2013-9-10,76.8,64.0,54.9,69.6,60.4,49.1,98,88,69,30.13,30.01,11,0,11,0.46
2013-9-11,88.9,75.6,66.2,75.6,69.9,65.5,99,84,55,30.04,29.91,15,1,15,0.05
2013-9-12,77.2,69.1,64.0,71.1,66.5,63.7,99,92,77,29.95,29.64,12,0,14,0.83
2013-9-13,64.0,57.5,51.4,63.7,56.7,50.5,99,97,93,29.88,29.63,8,0,8,0.46
2013-9-14,60.3,51.9,45.9,51.8,48.8,44.2,97,90,70,30.13,29.87,10,0,10,0.00
2013-9-15,66.4,52.8,40.5,55.2,48.0,39.7,100,85,54,30.20,30.06,14,0,14,0.01
2013-9-16,55.4,48.7,37.6,52.3,44.8,35.6,98,87,61,30.39,30.06,13,0,15,0.09
2013-9-17,63.0,46.5,33.6,48.7,40.2,32.5,100,81,52,30.55,30.38,10,0,10,0.00
2013-9-18,72.7,52.6,36.7,53.2,44.5,35.8,99,78,39,30.39,30.19,7,0,9,0.00
2013-9-19,76.5,56.9,41.7,56.5,49.2,41.0,99,79,42,30.21,30.08,6,0,7,0.00
2013-9-20,81.3,62.7,46.8,60.3,53.0,45.7,99,74,45,30.15,29.96,15,1,15,0.00
2013-9-21,73.9,64.6,56.3,61.3,56.3,52.7,91,75,52,29.97,29.61,20,2,20,0.02
2013-9-22,63.1,54.0,46.2,61.0,51.1,41.5,98,90,79,29.92,29.58,13,1,16,0.69
2013-9-23,48.7,45.4,41.5,41.7,40.4,38.5,92,82,74,30.10,29.92,14,1,14,0.00
2013-9-24,58.6,49.5,44.1,46.4,42.3,38.8,85,77,58,30.09,29.97,14,1,17,0.00
2013-9-25,59.5,51.3,44.1,50.9,46.7,42.8,97,85,67,30.09,29.98,8,0,8,0.00
2013-9-26,61.0,50.9,40.6,51.1,46.2,39.6,98,85,64,30.24,30.09,9,0,9,0.00
2013-9-27,66.7,55.5,50.2,55.9,50.6,48.2,96,84,60,30.35,30.23,7,0,7,0.00
2013-9-28,73.9,56.2,43.7,57.4,50.4,43.0,99,84,50,30.43,30.30,4,0,7,0.00
2013-9-29,74.5,57.1,43.9,57.6,48.9,43.2,99,78,38,30.30,30.11,7,0,9,0.01
2013-9-30,73.8,56.7,44.1,55.0,49.9,43.2,99,81,45,30.15,30.01,7,0,7,0.00
2013-10-1,75.4,57.6,43.5,59.5,52.1,42.8,99,84,55,30.06,29.92,9,0,10,0.01
2013-10-2,73.9,61.4,48.4,61.9,53.7,47.5,99,78,49,30.01,29.87,15,1,15,0.00
2013-10-3,71.4,59.0,49.8,52.0,48.4,45.0,90,69,40,30.14,30.01,10,0,11,0.00
2013-10-4,64.0,53.6,44.1,55.6,50.0,43.0,98,88,66,30.17,30.10,3,0,3,0.00
2013-10-5,63.9,55.0,48.9,53.1,49.7,44.6,97,83,60,30.21,30.13,4,0,4,0.03
2013-10-6,54.9,49.8,47.8,48.7,45.5,42.6,96,85,69,30.23,30.13,14,1,14,0.15
2013-10-7,65.5,56.4,49.8,63.3,54.8,48.6,98,94,86,30.13,29.64,31,2,31,0.56
2013-10-8,58.3,49.6,39.4,48.9,40.3,35.8,94,72,45,30.45,29.93,14,1,17,0.00
2013-10-9,67.5,48.0,33.3,44.6,37.1,32.2,98,71,28,30.55,30.42,8,0,9,0.00
2013-10-10,64.9,49.4,37.6,51.1,42.5,36.5,100,79,53,30.42,30.26,4,0,5,0.00
2013-10-11,72.7,55.0,43.0,50.5,43.9,37.2,94,70,33,30.26,30.19,5,0,5,0.00
2013-10-12,71.6,55.1,43.2,54.7,48.0,41.4,95,79,51,30.42,30.25,14,1,14,0.00
2013-10-13,67.6,55.9,48.2,49.1,47.4,44.8,92,75,49,30.46,30.35,13,1,13,0.00
2013-10-14,53.8,50.9,46.9,52.7,49.4,45.0,99,95,87,30.38,30.30,6,0,12,0.05
2013-10-15,66.6,55.7,49.3,56.3,52.5,49.1,99,90,69,30.35,30.17,12,0,12,0.01
2013-10-16,63.9,57.6,53.6,53.4,51.1,49.3,89,79,64,30.17,29.86,20,2,20,0.00
2013-10-17,63.9,56.2,51.3,54.0,50.9,46.4,98,83,60,29.88,29.73,13,1,13,0.18
2013-10-18,60.3,52.4,46.8,51.6,45.9,34.5,99,80,55,29.94,29.65,21,2,22,0.62
2013-10-19,61.0,52.2,44.2,46.4,42.2,37.2,91,70,48,29.96,29.71,15,1,15,0.05
2013-10-20,54.0,49.1,44.1,46.2,38.0,32.9,90,67,48,30.04,29.67,23,4,24,0.03
2013-10-21,60.6,49.1,36.0,43.7,38.8,34.0,94,70,49,30.12,29.94,13,1,13,0.00
2013-10-22,55.0,48.0,37.2,47.5,39.3,27.9,89,73,58,29.94,29.72,17,1,17,0.03
2013-10-23,50.2,41.2,35.6,35.2,31.7,28.2,92,70,46,29.82,29.68,13,1,14,0.00
2013-10-24,42.4,37.0,31.6,36.1,31.2,24.4,95,80,59,29.93,29.73,20,1,20,0.09
2013-10-25,41.5,36.2,32.5,34.2,30.8,27.3,96,81,62,30.19,29.93,11,1,11,0.02
2013-10-26,43.9,36.9,30.0,36.5,31.8,26.1,93,82,56,30.18,29.86,19,1,19,0.08
2013-10-27,45.0,40.8,37.2,37.8,33.1,28.9,90,74,57,30.07,29.80,17,2,19,0.02
2013-10-28,43.2,37.4,28.0,37.6,29.6,21.7,92,74,55,30.45,30.06,19,1,19,0.02
2013-10-29,42.1,30.3,21.7,27.3,22.3,18.5,94,74,43,30.55,30.42,12,0,12,0.00
2013-10-30,40.3,33.6,27.5,34.0,28.8,20.8,91,83,74,30.42,30.26,8,0,8,0.00
2013-10-31,57.7,42.9,31.6,55.4,40.8,30.2,97,92,80,30.30,29.68,19,2,19,0.45
2013-11-1,65.7,59.5,52.5,59.7,51.6,41.9,95,77,48,29.68,29.25,32,6,33,0.44
2013-11-2,53.2,46.5,34.9,45.0,41.1,33.4,96,82,67,29.92,29.63,11,0,14,0.04
2013-11-3,35.8,30.2,24.3,33.6,20.5,15.3,95,68,44,30.56,29.92,12,1,13,0.00
2013-11-4,38.7,27.6,19.8,20.1,17.5,14.2,92,68,37,30.77,30.56,7,0,7,0.00
2013-11-5,49.5,38.2,24.4,33.3,23.6,16.3,79,56,44,30.75,30.50,12,2,16,0.00
2013-11-6,60.3,48.7,36.9,45.1,38.5,31.1,84,68,49,30.50,29.91,19,2,20,0.00
2013-11-7,57.9,45.6,33.3,51.6,40.8,25.3,95,84,71,29.92,29.75,24,2,24,0.29
2013-11-8,36.3,33.3,31.1,30.2,26.4,23.5,88,76,67,30.16,29.87,18,2,19,0.00
2013-11-9,39.9,34.4,30.9,28.9,24.2,22.3,84,66,52,30.25,30.01,18,2,18,0.00
2013-11-10,43.0,36.6,32.5,38.8,34.5,29.1,96,92,81,30.01,29.75,17,1,17,0.47
2013-11-11,39.9,34.9,30.7,34.0,30.4,27.5,96,84,72,30.16,29.88,18,2,18,0.03
2013-11-12,30.6,24.7,21.7,28.6,19.3,14.7,92,79,73,30.32,29.96,16,2,16,0.00
2013-11-13,29.1,23.8,18.3,21.7,15.9,12.4,84,72,53,30.40,30.10,14,1,16,0.00
2013-11-14,42.6,35.0,27.9,31.5,26.2,21.0,81,70,61,30.12,30.07,11,1,12,0.00
2013-11-15,53.1,41.8,32.4,32.0,23.3,19.2,81,49,29,30.24,30.12,8,0,9,0.00
2013-11-16,56.1,42.2,33.6,30.6,27.3,24.4,78,58,30,30.35,30.22,7,0,8,0.00
2013-11-17,48.9,43.2,31.3,47.8,38.8,26.8,97,85,69,30.32,29.78,18,2,21,0.14
2013-11-18,55.8,49.3,37.8,54.7,41.7,27.3,97,76,52,29.78,29.44,27,4,27,0.48
2013-11-19,38.8,29.5,26.2,29.3,20.8,16.9,86,70,60,30.42,29.67,24,4,25,0.00
2013-11-20,35.2,26.8,21.6,19.9,17.9,16.2,85,70,48,30.73,30.42,13,0,13,0.00
2013-11-21,42.3,29.3,16.5,25.5,18.5,11.7,93,68,30,30.73,30.42,8,0,8,0.00
2013-11-22,40.3,33.1,31.3,39.7,30.7,23.5,98,91,72,30.42,29.87,13,0,13,0.11
2013-11-23,38.8,28.4,17.2,38.1,23.4,14.4,100,82,62,30.03,29.80,20,2,20,0.02
2013-11-24,17.1,14.3,10.9,14.7,8.3,0.5,92,78,56,30.34,29.90,27,4,27,0.00
2013-11-25,27.9,17.7,7.0,16.0,5.9,-2.0,79,61,37,30.47,30.23,12,1,12,0.00
2013-11-26,34.2,30.8,27.9,28.6,22.7,12.6,93,73,48,30.32,30.07,13,1,13,0.01
2013-11-27,37.0,32.4,27.3,36.5,31.3,24.8,98,96,89,30.08,29.42,14,1,14,0.08
2013-11-28,27.3,18.6,14.7,25.2,12.9,8.1,100,79,60,30.49,29.55,24,3,24,0.00
2013-11-29,24.3,14.7,9.0,13.5,9.1,5.7,88,79,57,30.86,30.49,7,0,7,0.00
2013-11-30,25.0,14.8,2.1,17.8,7.6,-0.6,90,75,54,30.89,30.42,13,1,17,0.00
2013-12-1,34.7,30.5,25.0,30.0,25.2,13.8,96,81,62,30.42,30.13,7,1,11,0.01
2013-12-2,34.9,31.9,28.8,34.2,31.1,27.7,100,97,96,30.13,29.97,6,0,6,0.01
2013-12-3,33.3,31.8,30.7,32.5,31.0,25.2,98,97,79,30.06,29.98,7,0,8,0.00
2013-12-4,37.4,31.0,27.3,29.5,26.8,23.5,95,84,69,30.24,30.06,8,0,8,0.02
2013-12-5,50.9,38.2,26.6,49.6,35.3,24.6,97,89,79,30.23,29.90,23,2,28,0.02
2013-12-6,46.9,36.0,31.5,46.2,32.9,24.8,97,88,76,30.20,29.93,10,1,10,0.24
2013-12-7,31.6,26.3,22.3,25.3,17.0,12.2,80,68,56,30.52,30.15,16,2,16,0.00
2013-12-8,25.2,21.4,17.4,15.1,11.8,8.4,77,66,54,30.66,30.51,12,0,13,0.00
2013-12-9,35.1,26.7,21.6,32.4,22.8,12.0,93,86,64,30.55,29.91,19,2,19,0.00
2013-12-10,33.3,26.9,19.0,30.0,18.1,8.6,89,69,56,29.99,29.83,19,2,19,0.00
2013-12-11,22.5,19.1,13.5,18.3,12.0,7.5,92,74,61,30.24,29.99,14,1,17,0.00
2013-12-12,15.3,10.8,3.6,9.0,3.4,-1.8,89,72,52,30.37,30.02,17,1,17,0.00
2013-12-13,15.6,9.9,-1.8,12.4,3.9,-7.6,90,77,64,30.51,29.96,12,1,12,0.00
2013-12-14,7.5,0.6,-7.1,4.5,-4.5,-10.7,87,79,66,30.73,30.30,8,0,8,0.00
2013-12-15,20.8,16.1,7.5,18.5,13.7,4.5,100,90,87,30.30,29.62,11,1,12,0.00
2013-12-16,17.1,8.8,-3.5,14.5,3.3,-8.5,92,78,64,30.32,29.76,12,1,12,0.00
2013-12-17,12.9,0.8,-11.6,9.0,-3.1,-15.3,87,83,74,30.37,30.14,15,0,16,0.00
2013-12-18,26.2,17.6,8.6,23.2,14.2,6.1,93,86,77,30.14,30.01,10,0,10,0.00
2013-12-19,33.8,28.8,24.1,28.6,24.7,20.1,93,84,76,30.14,29.97,10,1,10,0.00
2013-12-20,35.1,31.4,27.3,32.7,29.0,26.4,97,91,82,30.15,29.93,7,0,7,0.03
2013-12-21,51.4,37.9,27.0,49.3,36.9,26.2,99,96,89,29.99,29.83,14,1,14,0.36
2013-12-22,34.2,31.6,28.6,33.6,31.1,27.9,100,98,97,30.03,29.76,3,0,4,0.00
2013-12-23,36.3,32.8,27.5,36.1,32.2,23.4,100,98,83,30.21,30.00,13,0,14,0.30
2013-12-24,27.3,16.6,4.5,23.7,13.1,0.0,93,86,71,30.38,30.17,10,1,10,0.00
2013-12-25,14.9,7.2,-0.2,7.2,1.5,-4.0,89,77,65,30.64,30.38,12,1,12,0.00
2013-12-26,25.5,20.3,14.7,23.0,16.6,6.1,94,86,68,30.50,30.17,11,1,11,0.00
2013-12-27,27.5,24.6,21.6,23.0,21.3,18.9,93,87,75,30.27,30.19,12,1,12,0.00
2013-12-28,36.7,31.5,21.6,32.7,27.4,18.5,91,85,78,30.19,30.03,10,0,11,0.03
2013-12-29,41.7,34.1,27.0,34.9,30.8,26.1,97,89,65,30.05,29.63,12,1,12,0.30
2013-12-30,35.2,18.0,0.9,34.5,13.7,-2.9,98,83,66,30.28,29.62,21,2,21,0.03
2013-12-31,15.4,7.2,0.3,11.1,2.7,-2.9,91,82,67,30.27,30.09,13,0,14,0.00
2014-1-1,14.5,8.9,-2.2,10.0,3.3,-8.9,91,78,65,30.52,30.20,13,1,13,0.00
2014-1-2,1.0,-2.8,-7.4,-2.2,-6.9,-11.2,87,82,73,30.52,30.11,1,0,2,0.00